Weather History for Denver, CO

Change the Weather History Date:

Saturday, October 23, 2010

  Actual Average Record
Temperature  
Mean Temperature 51 °F 48 °F  
Max Temperature 63 °F 62 °F 87 °F (1973)
Min Temperature 39 °F 34 °F 16 °F (1873)
Degree Days  
Heating Degree Days 14 17  
Month to date heating degree days 172 293  
Since 1 July heating degree days 207 434  
Cooling Degree Days 0 0  
Month to date cooling degree days 8 1  
Year to date cooling degree days 870 765  
Growing Degree Days 2 (Base 50)    
Moisture  
Dew Point 39 °F    
Average Humidity 67    
Maximum Humidity 100    
Minimum Humidity 33    
Precipitation  
Precipitation 0.00 in 0.04 in 1.81 in (1914)
Month to date precipitation 0.50 0.81  
Year to date precipitation 12.11 13.13  
Snow  
Snow 0.00 in - - ()
Month to date snowfall 0  
Since 1 July snowfall 0  
Since 1 September snowfall 0  
Snow Depth 0.00 in    
Sea Level Pressure  
Sea Level Pressure 29.70 in    
Wind  
Wind Speed 7 mph (West)    
Max Wind Speed 16 mph    
Max Gust Speed 22 mph    
Visibility 5 miles    
Events Fog    
T = Trace of Precipitation, MM = Missing Value Source: NWS Daily Summary

Daily Weather History Graph

Daily Weather History Graph

Search for Another Location

Airport:

Trip Planner

Search our weather history database for the weather conditions in past years. The results will help you decide how hot, cold, wet, or windy it might be!

Date:

Astronomy

Oct. 23, 2010 Rise Set
Actual Time 7:17 AM MDT 6:07 PM MDT
Civil Twilight 6:49 AM MDT 6:35 PM MDT
Nautical Twilight 6:18 AM MDT 7:06 PM MDT
Astronomical Twilight 5:47 AM MDT 7:38 PM MDT
Moon 6:12 PM MDT (10/23) 7:59 AM MDT (10/23)
Length of Visible Light 11h 45m
Length of Day
10h 50m
Full, 100% of the Moon is Illuminated
Oct 23
Full
Oct 30
Last Quarter
Nov 5
New
Nov 13
First Quarter
Nov 21
Full

Hourly Weather History & Observations

Time (MDT) Temp. Windchill Dew Point Humidity Pressure Visibility Wind Dir Wind Speed Gust Speed Precip Events Conditions
12:50 AM 44.6 °F 40.2 °F 41.0 °F 87% 29.71 in 9.0 mi WSW 8.1 mph - N/A   Scattered Clouds
12:53 AM 44.6 °F 40.2 °F 41.0 °F 87% 29.71 in 9.0 mi WSW 8.1 mph - N/A   Scattered Clouds
1:53 AM 42.1 °F 39.2 °F 39.9 °F 92% 29.61 in 8.0 mi West 4.6 mph - N/A   Mostly Cloudy
2:11 AM 44.6 °F 41.4 °F 41.0 °F 87% 29.72 in 1.0 mi WSW 5.8 mph - N/A   Mostly Cloudy
2:17 AM 44.6 °F 40.7 °F 41.0 °F 87% 29.72 in 0.8 mi West 6.9 mph - N/A   Mostly Cloudy
2:49 AM 44.6 °F 41.4 °F 42.8 °F 93% 29.72 in 2.0 mi WNW 5.8 mph - N/A   Mostly Cloudy
2:53 AM 44.1 °F 40.8 °F 42.1 °F 93% 29.63 in 2.0 mi WNW 5.8 mph - N/A   Mostly Cloudy
3:00 AM 42.8 °F 41.1 °F 42.8 °F 100% 29.72 in 0.5 mi NW 3.5 mph - N/A Fog Fog
3:09 AM 42.8 °F 41.1 °F 41.0 °F 93% 29.72 in 2.0 mi West 3.5 mph - N/A   Overcast
3:12 AM 42.8 °F 40.1 °F 41.0 °F 93% 29.72 in 4.0 mi West 4.6 mph - N/A   Mostly Cloudy
3:16 AM 42.8 °F 40.1 °F 41.0 °F 93% 29.72 in 1.2 mi West 4.6 mph - N/A   Mostly Cloudy
3:18 AM 42.8 °F 40.1 °F 39.2 °F 87% 29.72 in 0.8 mi West 4.6 mph - N/A   Overcast
3:22 AM 42.8 °F 40.1 °F 39.2 °F 87% 29.72 in 0.2 mi West 4.6 mph - N/A Fog Fog
3:29 AM 42.8 °F 41.1 °F 39.2 °F 87% 29.72 in 0.5 mi West 3.5 mph - N/A Fog Fog
3:33 AM 41.0 °F - 39.2 °F 93% 29.72 in 0.2 mi Calm Calm - N/A Fog Fog
3:41 AM 42.8 °F - 39.2 °F 87% 29.71 in 0.5 mi Calm Calm - N/A Fog Fog
3:53 AM 41.0 °F - 39.9 °F 96% 29.63 in 0.5 mi Calm Calm - N/A Fog Fog
3:56 AM 41.0 °F - 39.2 °F 93% 29.71 in 3.0 mi Calm Calm - N/A   Overcast
4:09 AM 41.0 °F 36.4 °F 39.2 °F 93% 29.71 in 3.0 mi South 6.9 mph - N/A   Overcast
4:20 AM 42.8 °F 38.6 °F 41.0 °F 93% 29.71 in 1.2 mi SSW 6.9 mph - N/A   Overcast
4:32 AM 44.6 °F 41.4 °F 42.8 °F 93% 29.72 in 3.0 mi South 5.8 mph - N/A   Mostly Cloudy
4:45 AM 42.8 °F 39.3 °F 42.8 °F 100% 29.71 in 1.8 mi South 5.8 mph - N/A   Scattered Clouds
4:53 AM 43.0 °F 38.8 °F 42.1 °F 97% 29.62 in 1.5 mi SSW 6.9 mph - N/A   Scattered Clouds
5:02 AM 42.8 °F 38.0 °F 42.8 °F 100% 29.71 in 2.5 mi SW 8.1 mph - N/A   Scattered Clouds
5:09 AM 44.6 °F 41.4 °F 42.8 °F 93% 29.71 in 4.0 mi SSW 5.8 mph - N/A   Scattered Clouds
5:53 AM 45.0 °F 42.6 °F 42.1 °F 90% 29.63 in 6.0 mi WSW 4.6 mph - N/A   Overcast
6:53 AM 44.1 °F 41.5 °F 42.1 °F 93% 29.65 in 6.0 mi West 4.6 mph - N/A   Mostly Cloudy
7:53 AM 46.9 °F - 43.0 °F 86% 29.66 in 5.0 mi West 4.6 mph - N/A   Mostly Cloudy
8:53 AM 48.0 °F - 43.0 °F 83% 29.68 in 6.0 mi SSW 4.6 mph - N/A   Haze
9:53 AM 53.1 °F - 42.1 °F 66% 29.69 in 8.0 mi West 3.5 mph - N/A   Mostly Cloudy
10:53 AM 55.9 °F - 39.9 °F 55% 29.68 in 10.0 mi NNW 4.6 mph - N/A   Overcast
11:53 AM 57.9 °F - 39.0 °F 49% 29.70 in 10.0 mi NNW 10.4 mph - N/A   Overcast
12:53 PM 55.9 °F - 37.9 °F 51% 29.70 in 10.0 mi NNW 8.1 mph - N/A   Mostly Cloudy
1:53 PM 57.9 °F - 37.0 °F 46% 29.69 in 10.0 mi North 9.2 mph - N/A   Mostly Cloudy
2:53 PM 62.1 °F - 36.0 °F 38% 29.65 in 10.0 mi NNW 10.4 mph - N/A   Mostly Cloudy
3:53 PM 63.0 °F - 34.0 °F 34% 29.66 in 10.0 mi NW 6.9 mph - N/A   Mostly Cloudy
4:53 PM 63.0 °F - 34.0 °F 34% 29.68 in 10.0 mi NW 5.8 mph - N/A   Mostly Cloudy
5:53 PM 57.9 °F - 28.0 °F 32% 29.70 in 10.0 mi WNW 13.8 mph - N/A   Mostly Cloudy
6:53 PM 54.0 °F - 28.0 °F 37% 29.74 in 10.0 mi West 9.2 mph - N/A   Mostly Cloudy
7:53 PM 48.9 °F - 35.1 °F 59% 29.77 in 10.0 mi East 3.5 mph - N/A   Mostly Cloudy
8:53 PM 46.9 °F - 39.0 °F 74% 29.78 in 10.0 mi ESE 4.6 mph - N/A   Mostly Cloudy
9:53 PM 44.1 °F 40.1 °F 37.9 °F 79% 29.78 in 10.0 mi SE 6.9 mph - N/A   Scattered Clouds
10:53 PM 42.1 °F 37.7 °F 35.1 °F 76% 29.78 in 10.0 mi SE 6.9 mph - N/A   Scattered Clouds
11:53 PM 39.9 °F 33.9 °F 32.0 °F 73% 29.78 in 10.0 mi South 9.2 mph - N/A   Scattered Clouds